sat.trackr.live / text

‹ back to catalog

STARLINK-32820

NORAD 63041 · 2025-034N

PAYLOAD ACTIVE UNKNOWN

§ Identity

Operator
Country
US
Launch date
2025-02-18
Launch site
AFETR
Launch vehicle
Mass (kg)
RCS (m²)

Purposes: comms

External: N2YO · Heavens-Above · Gunter

§ Orbital elements

Epoch: 2026-09-21T17:21:32.872896Z

Period
94.01 min
Inclination
53.1618°
Eccentricity
0.0001216
Mean motion
15.31714076 rev/d
Perigee alt
469.9 km
Apogee alt
471.5 km
Semi-major
6,848.8 km
B*
3.5251e-4
RAAN
67.3405°
Arg perigee
90.7494°
Mean anomaly
269.3647°
Rev number
8,910

§ Raw data

STARLINK-328201 63041U 25034N   26264.72329714  .00010594  00000+0  35251-3 0  99902 63041  53.1618  67.3405 0001216  90.7494 269.3647 15.31714076 89108

JSON: /api/v1/satellites/63041 · /tle

For live sub-satellite position, see the globe view (requires WebGL).

§ Visibility from observer

Set your observer location to see the next 7 days of passes ≥ 10°. The values pass through the URL so the page stays shareable.

No JS? Fill the form by hand. The geolocation button needs JavaScript.